Location: Unspecified
(52.4292°N, 19.3359°E)
Time: 17:04:34
(UTC+02:00)

Transit 2A Rocket - Pass Details

Date: 30 May 2024
Orbit: 583 x 910 km, 66.7° (Epoch: 14 June)

Event Time Altitude Azimuth Distance (km) Brightness Sun altitude
Rises 09:57:46 0° 320° (NW) 3,382 7.9 46.4°
Reaches altitude 10° 10:00:14 10° 325° (NW) 2,487 7.4 46.8°
Maximum altitude 10:05:57 55° 43° (NE) 1,066 6.5 47.5°
Drops below altitude 10° 10:11:54 10° 120° (ESE) 2,590 8.7 48.3°
Sets 10:14:30 0° 125° (SE) 3,533 9.1 48.6°
